STARLINK-33976 (63858 NORAD) Tracking and Keplerian Element Data

This shows tracking and keplerian element data for the satellite.

Feedback or suggestion? Click here.




ElementValue
Catalog63858
NameSTARLINK-33976
Epoch Orbit3565
Epoch Day354.1886525
Epoch Year2025
RAAN166.8353
Inclination42.9983
Eccentricity0.0001798
Argument of Perigee270.0451
Mean Anonmoly90.0194
Mean Motion15.27583951
Decay Rate0.00012517
L11 63858U 25093Y 25354.18865250 .00012517 00000+0 46353-3 0 9992
L22 63858 42.9983 166.8353 0001798 270.0451 90.0194 15.27583951 35651



Live tracking and technical data element details for STARLINK-33976 (NORAD 63858). STARLINK-33976 can be tracked NOW for your location showing map with azimuth and elevation plus other details from your city location.







IsCatalogInMostPopularTable: catalog: 63858, numindb: 3
Update: records affected: 1



GetName: 63858 STARLINK-33976

Hit Count: updated at: Sun, 08 Feb 2026 09:10:57 GMT